TimeCST,TemperatureF,Dew PointF,Humidity,Sea Level PressureIn,VisibilityMPH,Wind Direction,Wind SpeedMPH,Gust SpeedMPH,PrecipitationIn,Events,Conditions,WindDirDegrees,DateUTC
12:54 AM,37.9,36.0,93,30.07,5.0,South,5.8,-,N/A,,Overcast,180,2013-11-21 06:54:00
1:54 AM,37.9,36.0,93,30.09,5.0,South,4.6,-,N/A,,Overcast,190,2013-11-21 07:54:00
2:54 AM,37.9,36.0,93,30.09,5.0,Calm,Calm,-,N/A,,Overcast,0,2013-11-21 08:54:00
3:54 AM,37.9,36.0,93,30.09,6.0,Calm,Calm,-,N/A,,Overcast,0,2013-11-21 09:54:00
4:54 AM,37.9,36.0,93,30.09,5.0,Calm,Calm,-,N/A,,Overcast,0,2013-11-21 10:54:00
5:02 AM,37.4,35.6,93,30.08,5.0,Calm,Calm,-,N/A,,Overcast,0,2013-11-21 11:02:00
5:54 AM,37.9,36.0,93,30.12,5.0,Calm,Calm,-,N/A,,Overcast,0,2013-11-21 11:54:00
6:54 AM,37.0,36.0,96,30.15,4.0,Calm,Calm,-,N/A,,Overcast,0,2013-11-21 12:54:00
7:54 AM,37.9,36.0,93,30.16,3.0,Calm,Calm,-,N/A,,Overcast,0,2013-11-21 13:54:00
8:04 AM,37.4,35.6,93,30.14,2.5,Calm,Calm,-,N/A,,Overcast,0,2013-11-21 14:04:00
8:14 AM,37.4,35.6,93,30.15,3.0,Calm,Calm,-,N/A,,Overcast,0,2013-11-21 14:14:00
8:54 AM,39.0,37.0,93,30.20,4.0,NW,6.9,-,N/A,,Overcast,310,2013-11-21 14:54:00
9:38 AM,39.2,37.4,93,30.17,3.0,NNW,9.2,-,N/A,,Overcast,330,2013-11-21 15:38:00
9:46 AM,39.2,37.4,93,30.17,2.5,NNW,9.2,-,N/A,,Overcast,330,2013-11-21 15:46:00
9:54 AM,39.0,37.0,93,30.19,2.5,NNW,8.1,-,N/A,,Overcast,340,2013-11-21 15:54:00
10:54 AM,37.9,37.0,97,30.20,2.5,NW,11.5,-,N/A,,Overcast,320,2013-11-21 16:54:00
11:03 AM,37.4,35.6,93,30.18,2.0,NNW,12.7,-,N/A,,Overcast,330,2013-11-21 17:03:00
11:20 AM,35.6,35.6,100,30.18,1.8,NNW,12.7,-,N/A,,Overcast,330,2013-11-21 17:20:00
11:54 AM,36.0,34.0,93,30.22,2.5,NW,11.5,-,N/A,,Overcast,310,2013-11-21 17:54:00
12:10 PM,35.6,33.8,93,30.20,3.0,NW,12.7,-,N/A,,Overcast,310,2013-11-21 18:10:00
12:30 PM,35.6,33.8,93,30.20,5.0,NNW,12.7,-,N/A,,Overcast,330,2013-11-21 18:30:00
12:54 PM,34.0,30.9,89,30.22,6.0,NNW,12.7,-,N/A,,Overcast,330,2013-11-21 18:54:00
1:54 PM,32.0,30.0,92,30.22,5.0,NNW,15.0,-,0.00,,Overcast,330,2013-11-21 19:54:00
2:54 PM,30.9,30.0,96,30.23,5.0,NNW,13.8,-,0.00,,Overcast,330,2013-11-21 20:54:00
3:54 PM,30.9,30.0,96,30.25,3.0,NNW,11.5,19.6,0.00,,Overcast,330,2013-11-21 21:54:00
4:54 PM,30.9,30.9,100,30.28,4.0,NNW,13.8,-,0.00,,Overcast,330,2013-11-21 22:54:00
5:54 PM,30.9,30.0,96,30.30,5.0,NNW,12.7,-,0.00,,Overcast,340,2013-11-21 23:54:00
6:18 PM,32.0,30.2,93,30.28,9.0,NNW,12.7,-,N/A,,Overcast,330,2013-11-22 00:18:00
6:54 PM,32.0,30.0,92,30.32,9.0,NNW,16.1,-,N/A,,Overcast,340,2013-11-22 00:54:00
7:54 PM,32.0,30.0,92,30.32,10.0,NNW,13.8,20.7,N/A,,Overcast,340,2013-11-22 01:54:00
8:25 PM,30.2,28.4,93,30.30,10.0,North,17.3,-,N/A,,Overcast,350,2013-11-22 02:25:00
8:54 PM,30.9,28.0,89,30.35,10.0,North,16.1,-,N/A,,Overcast,350,2013-11-22 02:54:00
9:54 PM,30.0,27.0,88,30.37,5.0,North,17.3,24.2,0.01,Snow,Light Snow,350,2013-11-22 03:54:00
10:11 PM,30.2,26.6,86,30.34,2.5,North,12.7,-,0.01,Snow,Light Snow,350,2013-11-22 04:11:00
10:26 PM,28.4,26.6,93,30.35,3.0,North,15.0,-,0.01,Snow,Light Snow,350,2013-11-22 04:26:00
10:54 PM,28.9,26.1,89,30.39,2.5,North,18.4,21.9,0.02,Snow,Light Snow,350,2013-11-22 04:54:00
11:39 PM,28.4,26.6,93,30.38,2.0,NNW,15.0,-,0.01,Snow,Light Snow,340,2013-11-22 05:39:00
11:54 PM,28.0,26.1,92,30.41,2.0,NNW,13.8,23.0,0.01,Snow,Light Snow,340,2013-11-22 05:54:00